Skip Page Navigation
NASA JPL Caltech
NASA Logo - Jet Propulsion Laboratory + View the NASA Portal
+ Center for Near-Earth Object Studies
JPL Home Earth Solar System Stars & Galaxies Technology
JPL Solar System Dynamics
BODIES ORBITS EPHEMERIDES TOOLS PHYSICAL DATA DISCOVERY FAQ SITE MAP
JPL Small-Body Database Browser
Search: [ help ]  
259429 (2003 SA5)
Classification: Main-belt Asteroid          SPK-ID: 2259429
Ephemeris | Orbit Diagram | Orbital Elements | Mission Design | Physical Parameters | Discovery Circumstances ]

[ show orbit diagram ]
Orbital Elements at Epoch 2459000.5 (2020-May-31.0) TDB
Reference: JPL 19 (heliocentric ecliptic J2000)
 Element Value Uncertainty (1-sigma)   Units 
e .2244543629957416 3.6536e-08  
a 2.240709991920014 7.7919e-09 au
q 1.737772858025414 8.2641e-08 au
i 7.137148258300471 5.5776e-06 deg
node 204.3679641481787 2.8614e-05 deg
peri 128.766885749821 3.1352e-05 deg
M 14.96027896896719 1.2324e-05 deg
tp 2458949.588710830828
(2020-Apr-10.08871083)
4.1797e-05 TDB
period 1225.115129130992
3.35
6.3904e-06
1.75e-08
d
yr
n .2938499341326052 1.5328e-09 deg/d
Q 2.743647125814614 9.5408e-09 au
  Orbit Determination Parameters
   # obs. used (total)      512  
   data-arc span      6799 days (18.61 yr)  
   first obs. used      2002-04-04  
   last obs. used      2020-11-14  
   planetary ephem.      DE431  
   SB-pert. ephem.      SB431-N16  
   condition code      0  
   norm. resid. RMS      .49225  
   source      ORB  
   producer      Otto Matic  
   solution date      2020-Dec-18 00:16:42  

Additional Information
 Earth MOID = .739041 au 
 Jupiter MOID = 2.67085 au 
 T_jup = 3.591 
[ show covariance matrix ]

Ephemeris | Orbit Diagram | Orbital Elements | Mission Design | Physical Parameters | Discovery Circumstances ]

Physical Parameter Table
Parameter Symbol Value Units Sigma Reference Notes
absolute magnitude H 16.6   n/a MPO268274  

259429 (2003 SA5)          Discovered 2003-Sep-16 by Spacewatch at Kitt Peak
Reference: 20110119/Numbers.arcLast Updated: 2011-01-25
Ephemeris | Orbit Diagram | Orbital Elements | Mission Design | Physical Parameters | Discovery Circumstances ]
ABOUT SSD CREDITS/AWARDS PRIVACY/COPYRIGHT GLOSSARY LINKS
FirstGov 2021-Jan-24 23:28 UT
(server date/time)  
NASA Home Page
Site Manager:   Ryan S. Park
Webmaster  Alan B. Chamberlin